Wetbulb
56.13 56.07 55.98 55.46 55.67 55.54 55.23 54.95 54.47 54.78 55.37 55.10 54.91 55.11 55.74 56.58 56.53 53.23 51.23 56.47 60.48 63.56 62.46 60.39 59.44 59.46 59.37 56.28 57.59 57.74 48.22 45.11 47.37 49.68 51.08 55.58 53.44 55.45 57.04 57.52 58.51 59.11 59.18 61.25 62.88
56.03 55.95 56.12 56.06 55.57 55.44 55.55 55.15 54.65 54.54 54.95 54.69 54.36 54.73 55.32 56.09 51.83 48.12 55.78 61.68 63.11 63.50 60.21 57.89 56.36 57.62 55.25 54.44 54.90 52.20 47.43 47.63 52.14 52.67 52.06 54.41 53.73 54.86 53.80 55.69 55.67 57.82 61.38 62.13 62.12
56.00 55.88 55.83 55.92 55.69 55.57 55.37 55.29 54.85 54.39 54.42 54.35 53.99 54.44 54.93 54.85 46.46 45.26 58.13 61.29 62.09 63.36 60.91 59.08 58.40 56.51 52.77 54.07 53.19 52.28 47.45 51.71 52.68 53.62 54.08 53.15 53.16 54.52 53.24 52.85 55.91 56.71 59.33 60.38 60.04
56.13 55.66 55.62 55.63 55.66 55.56 55.26 55.11 54.64 54.52 54.41 54.31 53.93 54.01 54.82 51.32 33.53 54.24 59.80 60.64 62.46 61.82 59.04 56.37 56.18 53.08 50.97 50.38 53.50 48.89 52.66 53.31 54.18 54.32 53.67 52.29 53.76 52.97 52.41 52.50 57.38 60.55 61.48 60.55 59.05
55.95 55.70 55.32 55.25 55.32 55.26 55.27 54.91 54.30 54.47 54.33 54.14 53.87 53.74 50.99 42.80 42.51 52.18 58.36 57.89 58.59 58.69 55.34 54.35 52.49 52.17 48.49 51.36 51.59 50.02 51.50 53.70 54.33 53.51 53.33 54.49 52.30 52.27 50.84 55.35 58.12 61.55 60.88 60.38 59.56
55.82 55.47 55.68 54.76 54.77 54.59 54.49 54.45 54.32 54.20 54.13 54.15 53.72 53.39 47.07 36.98 50.22 52.54 52.01 54.29 53.80 55.86 54.65 55.19 52.24 54.31 51.30 51.28 50.15 52.02 51.94 51.40 53.63 53.45 53.84 51.69 51.57 52.37 53.28 56.42 59.10 59.89 59.01 60.06 60.02
55.32 55.38 55.46 54.53 54.36 54.27 54.07 54.43 54.13 53.70 54.01 53.77 53.01 50.20 44.64 41.70 50.70 51.93 53.60 51.60 53.23 54.36 53.05 55.82 55.98 52.38 52.61 48.96 53.22 52.45 48.47 50.36 51.65 52.56 51.88 53.38 48.81 50.13 55.07 56.86 57.45 58.34 58.51 59.44 59.91
55.03 55.01 55.11 54.19 54.01 54.03 53.76 53.77 53.54 53.47 53.60 53.18 52.33 48.69 40.60 50.24 51.82 50.76 50.85 49.24 53.34 56.46 55.86 56.89 56.73 52.41 49.26 52.97 51.39 48.82 48.58 43.48 49.72 51.56 52.36 50.76 44.22 51.26 56.03 55.41 55.77 57.20 57.57 59.07 59.42
55.03 54.63 54.36 53.77 54.05 53.83 53.29 53.43 53.47 53.30 52.91 52.19 47.87 46.13 38.93 52.05 46.79 50.87 50.59 48.57 52.68 55.02 55.79 56.61 54.38 48.78 47.77 46.33 44.31 46.37 40.97 42.87 45.38 51.64 51.01 49.25 45.53 51.39 55.84 55.63 55.27 55.95 56.88 57.77 59.46
54.50 54.51 53.66 53.69 53.87 54.05 53.50 52.85 52.93 51.42 50.01 49.32 47.73 41.47 44.02 42.07 47.02 48.15 52.40 52.38 50.55 51.15 51.78 50.72 49.36 43.99 43.81 43.10 34.99 37.81 40.42 43.06 43.06 48.01 49.94 47.21 46.76 50.39 52.98 55.06 55.06 55.54 56.26 57.06 58.20
54.32 53.82 53.27 53.09 53.51 52.81 51.68 48.57 43.07 41.45 43.64 39.33 39.79 40.29 42.02 45.56 47.71 47.21 51.26 50.01 49.79 47.39 43.39 47.16 41.75 37.47 39.63 44.00 43.40 43.60 42.02 41.94 45.79 49.43 47.71 46.56 46.99 48.74 52.32 53.31 54.06 55.98 55.94 56.37 57.47
54.08 53.64 53.32 53.53 52.90 52.30 49.60 42.48 43.46 45.33 36.52 42.86 41.68 41.25 43.62 45.24 39.10 43.27 50.91 44.01 44.18 39.41 43.91 42.16 38.37 42.62 43.42 43.97 44.49 43.75 42.46 41.51 45.17 47.61 46.61 46.45 46.12 49.01 52.09 52.57 54.21 55.25 56.03 56.66 57.88
54.17 53.81 53.97 53.25 52.22 49.45 46.26 45.37 49.88 47.38 35.37 37.33 39.86 40.10 41.92 43.99 39.44 40.05 45.31 44.70 41.73 39.83 40.95 39.13 42.11 45.51 44.20 41.43 40.35 39.70 39.83 42.28 42.46 45.85 46.66 44.38 43.86 46.82 50.11 52.31 54.10 55.44 55.75 56.86 57.87
53.97 53.55 52.96 52.59 47.95 47.88 43.89 48.18 49.46 47.82 30.23 32.77 36.67 41.25 43.43 43.45 37.56 45.03 47.05 44.66 42.30 39.17 41.13 40.17 43.50 43.61 41.92 40.50 41.45 34.22 43.05 42.45 42.16 41.81 37.07 44.78 36.52 44.06 47.65 48.11 51.55 53.96 55.26 56.14 57.16
53.40 52.60 50.92 51.74 47.28 44.36 45.88 48.46 47.74 44.53 15.25 33.92 36.63 46.76 43.94 38.98 38.81 41.46 48.51 44.79 38.51 39.68 40.60 37.52 38.64 41.21 40.89 42.34 44.67 40.77 44.19 42.36 41.36 40.33 39.27 40.75 38.58 42.28 47.13 45.85 48.19 51.62 55.32 56.71 57.97
51.23 50.62 50.49 49.83 48.75 47.45 48.93 48.04 44.81 28.31 14.77 28.64 36.67 35.24 35.36 38.53 38.22 40.32 41.24 45.44 44.65 39.61 40.52 38.69 42.96 41.38 42.74 45.36 45.32 46.45 43.41 41.71 40.84 38.35 31.44 37.61 38.79 38.92 43.29 45.82 48.11 50.71 54.70 56.39 56.61
49.97 50.33 49.73 48.97 43.96 48.31 48.22 42.89 27.74 17.59 29.77 26.03 28.88 33.63 33.18 32.66 34.73 36.26 35.72 34.04 33.12 29.02 30.98 37.85 38.22 42.09 43.09 42.00 44.99 44.35 39.39 31.13 29.85 29.56 30.78 38.92 37.79 39.42 45.80 47.82 48.48 50.07 53.42 55.13 55.19
50.96 50.46 48.66 47.42 48.49 47.82 45.24 35.00 17.91 21.91 22.61 32.16 32.11 32.52 29.38 31.80 32.94 34.44 32.84 30.17 35.87 35.79 32.40 30.08 30.22 38.84 43.35 42.77 40.44 41.37 38.97 32.83 27.67 28.96 30.99 38.03 32.95 39.46 46.46 45.61 46.10 49.84 53.64 53.23 51.07
48.87 49.28 47.59 46.55 47.73 47.17 38.61 24.63 24.05 25.60 30.38 29.04 30.62 25.81 26.83 31.05 29.71 31.46 30.74 30.69 34.20 36.69 30.79 30.84 31.46 42.01 42.43 43.88 43.29 40.46 37.70 39.93 33.05 31.70 31.63 35.29 38.58 43.57 45.06 44.04 45.59 48.22 48.90 48.58 48.16
47.09 45.61 44.01 46.85 47.33 44.55 32.06 26.53 24.35 30.78 32.47 31.15 23.23 26.98 21.06 27.10 26.89 28.70 29.53 34.42 33.70 36.51 39.61 36.05 29.38 39.29 42.34 43.24 43.82 41.97 42.14 34.79 34.96 27.20 26.73 33.19 33.55 37.19 40.42 41.60 43.74 44.69 45.45 45.30 44.77
46.04 37.87 44.50 46.73 46.29 37.23 26.85 26.08 27.22 33.04 33.89 27.73 23.62 22.73 25.03 26.80 28.91 28.07 29.37 34.02 36.23 35.96 37.52 37.85 34.10 34.08 39.79 36.15 35.94 38.62 37.47 39.19 38.59 34.53 29.72 27.86 32.01 36.35 42.52 44.28 42.17 43.30 45.25 43.99 42.53
43.77 31.82 44.21 45.80 34.00 30.25 29.66 26.69 31.31 31.16 34.29 32.21 31.89 28.70 23.17 24.37 24.99 27.67 28.13 32.10 38.11 37.82 32.39 37.40 35.26 27.21 33.00 37.93 39.41 38.99 38.75 39.52 33.16 30.54 31.23 30.83 32.46 39.38 40.41 45.38 43.80 44.02 44.45 43.52 42.87
33.22 39.20 44.19 43.35 29.13 29.37 30.69 28.13 30.21 29.95 30.77 30.46 29.06 30.43 29.80 24.90 20.43 27.03 30.76 36.97 38.35 36.48 34.55 36.82 30.98 22.84 29.80 35.36 38.46 35.19 38.37 40.38 38.40 35.25 29.46 31.27 31.67 39.61 43.49 43.32 44.13 42.49 42.52 42.32 41.68
39.39 30.48 33.71 36.12 34.91 30.33 27.28 26.39 24.87 33.52 31.36 32.46 30.94 31.97 27.73 26.31 28.89 23.49 29.86 35.18 37.06 36.31 39.51 39.07 33.41 28.82 28.30 31.87 35.42 34.11 35.87 38.97 38.28 31.91 30.98 31.93 32.34 34.99 41.35 41.17 41.93 41.92 41.70 41.30 42.07
37.91 31.35 29.76 29.44 31.31 31.19 30.66 29.10 26.74 27.48 31.93 32.97 29.35 27.65 29.32 23.10 25.91 25.87 30.23 31.98 34.85 37.21 35.79 36.63 29.43 31.79 33.12 33.74 35.11 36.47 36.49 37.80 36.67 37.35 32.51 35.18 33.15 35.94 40.23 41.46 41.73 42.77 42.39 41.97 42.54
34.27 31.80 30.04 29.95 29.48 29.54 29.91 27.84 27.89 29.08 30.13 28.27 29.18 30.54 32.02 27.43 27.04 26.59 30.13 29.46 30.18 33.68 33.94 36.36 29.58 33.60 30.41 34.25 34.90 33.32 36.67 37.68 37.89 36.99 36.85 35.66 34.12 38.44 40.47 43.86 41.70 41.97 42.12 41.95 43.28
38.70 37.00 36.16 31.65 28.68 27.61 28.62 28.53 27.99 30.85 31.51 32.94 32.22 29.77 27.60 28.77 33.05 33.18 33.85 32.80 31.32 29.99 30.48 32.65 32.24 31.26 27.28 31.12 32.33 26.18 32.05 36.97 37.60 38.49 38.43 34.15 34.45 38.18 36.76 40.46 41.81 41.85 42.85 43.57 45.02
MSLP
1018.59 1018.53 1018.55 1018.34 1018.33 1018.30 1018.29 1018.18 1018.24 1018.00 1017.93 1017.86 1017.68 1017.49 1017.30 1016.96 1016.50 1015.86 1015.06 1014.62 1014.51 1014.40 1014.75 1014.71 1014.49 1014.60 1015.00 1014.58 1013.79 1012.79 1012.22 1010.82 1009.65 1008.98 1008.72 1008.02 1007.49 1007.12 1007.41 1007.95 1008.54 1009.50 1010.10 1010.73 1012.54
1018.41 1018.30 1018.19 1018.12 1018.19 1018.15 1018.06 1018.13 1018.05 1017.95 1017.91 1017.81 1017.60 1017.36 1017.11 1016.78 1016.24 1014.89 1014.39 1013.83 1014.04 1014.41 1014.61 1014.40 1014.14 1014.85 1014.85 1014.18 1014.00 1013.22 1011.77 1010.29 1009.35 1008.85 1008.14 1007.76 1007.69 1007.43 1007.84 1008.43 1009.45 1010.40 1011.27 1011.96 1012.59
1018.05 1018.03 1017.98 1017.90 1017.94 1017.97 1017.84 1017.97 1017.86 1017.78 1017.80 1017.75 1017.54 1017.32 1017.12 1016.80 1015.72 1013.31 1013.10 1013.28 1013.47 1013.92 1014.18 1014.06 1014.11 1014.35 1014.37 1013.74 1013.51 1012.48 1010.71 1010.22 1009.24 1009.14 1009.52 1008.37 1007.69 1007.49 1007.93 1008.56 1009.04 1010.22 1011.65 1012.52 1012.72
1017.67 1017.73 1017.76 1017.74 1017.68 1017.69 1017.80 1017.74 1017.58 1017.70 1017.71 1017.69 1017.51 1017.30 1017.09 1016.95 1015.33 1013.16 1012.98 1013.14 1013.00 1013.47 1014.03 1014.14 1013.85 1013.72 1013.43 1012.64 1012.75 1012.37 1011.02 1010.08 1009.71 1009.55 1010.03 1008.41 1008.09 1007.99 1008.07 1008.55 1008.33 1009.46 1011.15 1012.32 1012.71
1017.28 1017.37 1017.39 1017.42 1017.56 1017.52 1017.62 1017.44 1017.59 1017.61 1017.72 1017.63 1017.52 1017.34 1017.06 1016.22 1014.47 1013.29 1012.81 1013.05 1013.03 1013.34 1013.41 1013.67 1013.62 1013.23 1012.60 1012.25 1012.40 1012.19 1011.01 1010.60 1009.98 1009.61 1009.95 1008.85 1008.43 1008.24 1008.23 1008.60 1008.88 1009.93 1011.17 1012.11 1012.68
1016.80 1016.91 1017.09 1017.09 1017.30 1017.38 1017.33 1017.30 1017.47 1017.52 1017.48 1017.48 1017.39 1017.29 1017.01 1015.56 1013.73 1013.01 1012.56 1013.16 1013.18 1013.15 1013.06 1013.23 1013.02 1013.00 1012.73 1011.88 1011.80 1011.34 1011.10 1010.80 1010.02 1009.76 1009.44 1009.17 1008.65 1008.47 1008.46 1008.67 1009.55 1010.69 1011.62 1012.02 1012.50
1016.41 1016.56 1016.71 1016.92 1017.07 1017.10 1017.15 1017.23 1017.34 1017.32 1017.33 1017.35 1017.24 1017.17 1016.32 1014.65 1013.18 1012.79 1012.59 1012.71 1012.87 1012.75 1012.80 1012.51 1012.86 1013.20 1012.57 1012.49 1011.71 1011.24 1011.09 1011.59 1010.55 1009.61 1009.35 1009.25 1008.87 1008.48 1008.80 1008.80 1009.80 1011.04 1011.86 1012.11 1012.47
1016.06 1016.28 1016.51 1016.71 1016.88 1016.96 1017.10 1017.11 1017.17 1017.23 1017.24 1017.14 1017.10 1016.82 1015.31 1013.42 1012.84 1012.79 1012.66 1012.34 1012.27 1012.06 1012.19 1012.43 1012.81 1013.15 1013.35 1012.63 1011.59 1010.94 1011.27 1010.97 1009.94 1009.30 1009.33 1009.21 1008.60 1008.60 1008.86 1008.81 1010.05 1010.99 1011.98 1012.24 1012.46
1015.85 1016.11 1016.37 1016.48 1016.77 1016.96 1017.01 1017.12 1017.18 1017.15 1017.02 1016.93 1016.83 1016.25 1014.42 1012.97 1012.68 1012.28 1012.32 1012.03 1011.98 1011.78 1011.64 1012.18 1012.76 1012.93 1013.48 1012.74 1011.59 1010.57 1010.27 1010.55 1009.92 1009.25 1009.25 1009.48 1008.84 1008.29 1008.69 1008.93 1010.11 1010.98 1012.05 1012.67 1012.65
1015.81 1016.17 1016.31 1016.52 1016.73 1016.94 1017.09 1017.15 1016.89 1017.00 1016.39 1016.24 1015.92 1015.96 1014.26 1013.27 1012.76 1012.40 1012.20 1011.86 1012.01 1011.69 1011.78 1012.07 1012.47 1013.23 1013.06 1012.58 1011.51 1011.05 1010.56 1010.15 1009.47 1009.48 1009.47 1009.71 1009.15 1008.69 1008.69 1008.51 1010.06 1010.97 1012.04 1012.66 1012.95
1016.01 1016.28 1016.46 1016.67 1016.78 1017.02 1017.24 1017.19 1017.30 1016.95 1016.31 1015.56 1015.11 1014.79 1013.92 1013.54 1012.81 1011.85 1011.50 1011.67 1011.82 1011.96 1011.44 1011.48 1012.25 1012.46 1012.65 1012.13 1011.77 1011.30 1010.93 1010.30 1009.58 1009.53 1009.62 1009.39 1009.11 1008.98 1008.99 1009.33 1010.25 1010.78 1011.43 1012.26 1012.82
1016.30 1016.45 1016.71 1016.84 1016.95 1017.22 1017.14 1016.96 1017.38 1017.68 1016.36 1014.96 1014.98 1014.71 1014.11 1013.76 1013.12 1011.41 1011.48 1011.84 1011.63 1011.74 1011.63 1011.87 1011.19 1011.34 1012.09 1012.13 1011.76 1011.52 1010.78 1010.52 1010.05 1010.29 1010.01 1009.49 1009.22 1008.86 1008.75 1009.02 1009.36 1009.43 1010.63 1011.45 1012.27
1016.58 1016.85 1017.07 1017.20 1017.34 1017.39 1017.18 1017.69 1017.65 1017.42 1016.74 1015.12 1014.80 1014.59 1014.29 1014.18 1013.00 1011.99 1011.90 1011.39 1011.52 1011.62 1011.37 1011.30 1011.27 1010.90 1011.97 1012.38 1012.14 1011.98 1011.34 1010.80 1010.82 1011.10 1011.16 1010.82 1009.63 1009.18 1008.42 1008.27 1008.81 1008.93 1010.19 1010.75 1011.43
1016.91 1017.25 1017.53 1017.58 1017.93 1017.47 1017.68 1017.96 1017.71 1017.58 1017.00 1015.49 1014.70 1014.52 1014.20 1013.81 1013.04 1012.36 1012.09 1011.96 1011.27 1011.53 1011.50 1011.78 1011.32 1011.18 1011.58 1011.82 1011.92 1012.49 1012.20 1012.06 1011.72 1011.56 1011.58 1011.32 1009.83 1008.63 1008.28 1008.35 1008.54 1009.13 1010.09 1010.67 1011.23
1017.43 1017.78 1017.99 1017.78 1017.85 1017.90 1018.55 1018.02 1017.75 1017.67 1017.40 1015.89 1014.85 1014.40 1014.01 1013.94 1013.29 1012.31 1012.12 1011.80 1011.54 1011.68 1011.88 1012.53 1012.03 1011.33 1011.45 1011.03 1011.20 1011.78 1012.28 1012.50 1012.67 1012.44 1012.28 1011.67 1010.87 1008.10 1008.24 1008.24 1008.47 1008.89 1009.56 1010.38 1011.44
1017.99 1018.23 1018.24 1017.97 1018.12 1018.77 1018.39 1018.10 1017.99 1018.35 1017.38 1016.34 1015.40 1014.73 1014.25 1013.77 1013.29 1012.66 1012.14 1012.02 1011.74 1011.96 1012.12 1012.57 1012.72 1012.56 1011.72 1011.22 1011.18 1011.15 1012.29 1012.63 1013.06 1013.19 1012.82 1011.85 1010.90 1009.07 1007.91 1007.77 1008.16 1008.47 1009.06 1010.14 1011.37
1018.47 1018.59 1018.57 1018.61 1019.07 1018.84 1018.44 1018.21 1018.71 1018.61 1018.04 1017.55 1016.60 1015.71 1015.15 1014.70 1013.98 1013.23 1012.58 1012.43 1011.97 1012.06 1012.48 1012.84 1012.64 1012.57 1011.98 1011.43 1010.96 1011.39 1012.05 1012.83 1013.59 1013.46 1012.70 1011.99 1011.58 1009.78 1008.82 1008.58 1008.02 1008.10 1009.18 1010.29 1011.82
1018.81 1018.86 1019.25 1019.28 1019.17 1018.87 1018.49 1018.73 1019.28 1019.22 1018.90 1018.23 1017.30 1016.61 1016.29 1015.89 1014.99 1014.10 1013.53 1012.86 1012.26 1012.09 1012.00 1012.39 1012.52 1012.26 1011.80 1011.40 1011.05 1011.39 1011.85 1012.27 1012.64 1012.97 1012.88 1012.24 1011.40 1010.11 1009.26 1009.20 1008.98 1008.70 1009.88 1011.56 1013.05
1019.08 1018.98 1019.12 1019.44 1019.18 1018.89 1019.12 1019.66 1019.93 1019.85 1019.49 1019.05 1018.02 1017.59 1017.40 1017.13 1016.85 1015.34 1014.21 1013.39 1012.54 1012.54 1012.32 1012.22 1012.48 1012.21 1012.08 1012.07 1012.01 1011.66 1011.92 1012.35 1012.25 1013.21 1012.94 1012.58 1011.46 1010.05 1009.77 1010.06 1010.18 1010.51 1011.32 1012.71 1014.14
1019.05 1019.05 1019.52 1019.55 1019.33 1019.19 1019.79 1020.26 1020.42 1020.30 1019.95 1019.74 1019.45 1019.13 1018.71 1018.23 1017.43 1016.40 1014.90 1013.69 1013.19 1012.79 1012.47 1013.17 1013.06 1012.93 1012.84 1012.49 1012.16 1011.61 1011.97 1012.65 1012.64 1012.95 1012.54 1012.28 1011.45 1010.11 1010.01 1010.58 1011.24 1011.72 1012.53 1013.75 1015.16
1019.24 1019.59 1019.97 1019.57 1019.41 1019.89 1020.70 1021.01 1020.78 1020.35 1020.17 1020.19 1020.06 1019.94 1019.69 1019.06 1018.23 1017.21 1015.64 1014.13 1013.64 1013.08 1012.76 1013.29 1013.37 1013.68 1013.32 1013.62 1012.62 1012.56 1012.41 1012.63 1012.76 1012.37 1012.22 1012.10 1011.07 1010.33 1009.91 1010.30 1011.42 1012.45 1013.40 1014.61 1015.91
1019.66 1020.31 1020.08 1019.79 1020.37 1021.14 1021.24 1021.33 1021.29 1020.57 1020.17 1019.96 1019.85 1020.15 1020.10 1019.73 1019.01 1018.00 1016.52 1015.19 1013.93 1013.78 1013.14 1012.80 1013.29 1013.83 1014.08 1014.17 1014.08 1013.53 1012.88 1012.45 1012.51 1012.72 1012.33 1011.89 1011.24 1010.62 1010.21 1010.26 1011.47 1012.82 1013.98 1015.29 1016.41
1020.59 1020.49 1020.14 1020.14 1020.91 1021.44 1021.67 1021.50 1021.23 1020.76 1020.40 1020.20 1020.11 1020.12 1020.37 1020.30 1019.81 1018.54 1017.29 1015.70 1014.98 1014.40 1013.97 1013.84 1013.75 1014.11 1014.31 1014.63 1014.32 1013.96 1013.30 1012.56 1012.46 1012.18 1012.25 1012.20 1011.75 1010.97 1010.66 1011.08 1011.93 1013.12 1014.54 1015.70 1017.05
1020.73 1021.44 1021.51 1021.29 1021.50 1021.60 1021.57 1021.39 1021.22 1020.79 1020.64 1020.42 1020.10 1020.16 1020.43 1020.68 1020.08 1019.30 1017.90 1016.63 1015.90 1015.43 1014.90 1015.09 1014.41 1014.42 1014.72 1014.88 1014.72 1014.06 1013.53 1013.13 1012.99 1012.91 1012.58 1012.10 1011.68 1011.50 1011.54 1012.14 1012.90 1013.93 1014.91 1016.31 1017.62
1021.29 1022.20 1022.80 1022.44 1021.90 1021.75 1021.72 1021.35 1021.07 1020.82 1020.89 1020.76 1020.39 1020.38 1020.60 1020.68 1020.26 1019.76 1018.70 1017.60 1016.60 1015.90 1015.53 1015.06 1015.15 1014.98 1015.30 1015.33 1014.92 1014.22 1013.68 1013.34 1013.04 1012.45 1012.18 1011.87 1011.75 1011.74 1012.02 1012.59 1013.37 1014.21 1015.42 1016.53 1017.55
1021.56 1022.36 1023.05 1022.69 1022.31 1021.96 1021.53 1021.21 1020.87 1020.57 1020.63 1020.46 1020.62 1020.51 1020.78 1020.91 1020.75 1020.43 1019.90 1018.96 1018.00 1016.61 1016.04 1015.70 1015.50 1015.23 1015.63 1015.27 1014.82 1014.32 1013.57 1013.24 1013.05 1012.58 1012.32 1012.12 1012.18 1012.01 1012.10 1012.93 1013.80 1014.52 1015.29 1016.15 1016.99
1021.36 1021.85 1022.20 1022.38 1022.48 1022.32 1021.28 1021.01 1020.85 1020.71 1020.16 1020.06 1020.25 1020.57 1020.71 1020.73 1020.85 1020.88 1020.57 1019.94 1019.18 1018.79 1017.68 1016.53 1016.20 1015.95 1016.01 1015.49 1014.82 1014.76 1013.77 1013.31 1012.94 1012.50 1012.10 1012.30 1012.69 1012.63 1013.09 1013.41 1013.79 1014.50 1015.11 1015.74 1016.51
Wind_Speed
13 13 12 11 11 11 11 10 11 11 12 12 13 13 15 15 17 16 14 8 5 4 3 1 3 3 1 4 8 11 5 10 17 12 5 6 3 2 3 7 5 4 6 15 18
14 13 14 12 12 11 11 11 10 10 11 12 13 13 15 16 16 19 17 12 8 10 6 9 9 9 5 9 5 10 9 13 12 9 5 5 5 8 4 8 5 8 16 19 15
14 14 14 14 13 13 10 12 10 10 10 11 12 13 14 14 15 18 20 9 16 12 11 5 5 10 12 10 10 9 12 14 4 8 11 5 3 2 5 7 9 14 16 16 13
15 14 14 14 14 13 12 11 11 10 11 11 12 13 13 9 8 5 8 8 9 11 8 5 9 4 11 12 14 5 20 13 7 8 11 2 3 3 5 4 3 19 19 17 16
14 13 13 13 13 12 12 10 11 10 10 10 12 12 9 9 18 19 10 10 7 11 12 11 9 8 10 10 22 20 9 12 9 7 8 6 5 1 1 9 8 18 17 17 14
12 10 11 13 11 10 11 11 11 10 10 10 11 11 10 19 15 19 18 4 11 10 10 10 7 7 6 9 21 17 18 6 12 7 5 3 3 3 5 8 15 14 11 12 14
11 9 11 11 8 10 10 11 9 9 9 10 10 8 13 18 15 15 7 5 11 10 15 12 8 3 5 8 7 9 20 12 20 8 5 6 6 6 6 9 11 12 10 9 11
10 8 9 7 8 8 9 8 7 8 9 11 10 9 11 13 6 13 15 16 12 10 13 12 5 1 1 10 4 11 10 18 16 11 5 3 5 10 7 10 10 11 9 7 9
8 6 6 7 6 6 5 4 7 9 11 12 8 8 10 5 9 10 13 13 9 8 9 4 6 2 6 11 3 7 6 16 14 14 7 8 6 10 12 9 9 10 10 10 13
5 5 5 5 4 3 3 4 7 8 11 10 8 7 6 8 11 12 12 9 7 4 4 6 4 5 5 12 6 9 6 19 15 16 17 10 8 6 3 10 6 11 10 10 11
6 4 4 2 4 6 4 5 4 5 6 7 8 11 13 13 13 7 9 7 4 2 4 6 5 8 13 14 7 5 14 9 14 8 17 17 12 8 9 7 9 15 14 12 13
6 6 4 5 8 5 3 4 6 3 9 9 6 10 11 6 8 7 1 5 6 7 5 6 11 13 8 15 9 11 12 19 9 8 2 12 12 10 9 11 9 9 14 14 14
8 6 8 9 7 2 3 7 5 7 5 2 1 4 5 5 7 7 8 5 6 7 7 6 0 8 12 14 1 7 4 6 4 7 3 6 13 17 7 7 9 6 3 10 14
10 10 9 6 2 2 2 6 4 4 3 2 1 2 4 5 4 2 4 6 4 5 3 3 7 5 13 13 8 2 1 3 3 14 10 7 7 14 14 8 9 12 7 8 10
13 10 6 3 1 1 5 6 5 2 4 4 3 2 4 4 7 2 2 4 6 4 3 3 7 2 6 6 12 5 8 6 3 2 3 4 3 11 15 14 13 11 15 12 14
12 7 4 0 3 3 5 6 3 2 4 5 5 7 11 3 3 5 2 4 3 4 4 2 2 4 4 2 13 11 6 5 4 1 3 6 2 6 12 16 14 13 14 15 17
13 12 5 4 2 6 5 3 2 2 3 7 5 9 11 7 7 4 3 3 3 2 1 1 5 2 2 1 2 5 3 3 2 2 1 1 8 7 4 8 3 16 13 12 14
7 4 4 5 4 5 3 2 2 1 2 6 7 9 4 8 5 5 4 4 6 6 2 4 1 6 4 3 3 9 9 2 1 3 3 3 4 4 5 5 7 5 17 15 15
5 1 2 4 5 3 2 1 2 3 4 8 9 3 2 6 4 6 3 5 4 6 3 2 2 2 3 4 6 5 4 3 6 1 4 3 5 6 7 5 5 11 15 13 13
2 1 2 6 5 2 3 2 2 3 5 5 4 6 5 8 6 6 5 5 2 4 7 2 1 4 2 4 1 1 7 4 3 5 3 4 3 3 7 9 9 9 12 12 12
2 3 3 5 3 4 1 3 3 2 3 0 2 3 3 4 4 4 6 4 4 7 7 5 1 1 2 2 2 3 4 3 0 1 1 4 3 3 6 12 13 9 11 13 13
2 2 3 4 2 1 1 0 2 2 3 4 2 3 2 3 3 3 4 8 7 8 5 2 3 1 2 2 3 1 3 4 3 4 0 3 1 4 6 11 13 11 14 14 13
2 2 1 3 1 0 1 2 2 2 4 2 2 4 2 3 2 4 6 7 11 7 4 8 2 2 2 2 1 2 2 2 2 3 1 4 3 4 5 8 12 14 13 13 13
2 1 4 3 1 1 1 1 3 3 3 5 7 7 2 3 5 4 4 6 12 13 18 3 4 1 3 2 3 2 4 3 4 1 5 4 2 2 5 7 11 12 11 12 13
3 1 1 1 0 4 1 3 4 3 3 2 3 5 3 3 1 5 5 8 8 6 5 2 2 2 1 2 3 3 7 10 4 3 3 3 3 5 5 8 9 11 12 12 12
3 1 0 1 3 3 3 3 4 1 3 3 5 2 4 5 2 6 6 3 4 10 3 4 4 3 1 3 2 4 7 9 9 1 3 1 4 5 5 9 10 13 15 15 14
1 2 2 2 0 2 2 3 1 3 5 7 4 5 6 5 1 2 6 8 5 6 6 3 1 2 2 3 4 4 6 8 3 2 3 3 1 4 2 4 10 12 14 14 13
Wind_Direction
293 289 286 290 294 290 294 303 312 316 311 318 318 314 311 314 312 289 255 258 200 186 203 235 124 150 236 247 264 292 246 233 251 248 205 197 234 249 36 118 89 48 32 125 167
288 287 289 285 284 281 288 292 302 311 310 317 320 317 314 317 303 278 270 252 243 200 215 203 195 182 215 217 212 237 209 240 242 343 108 191 270 143 152 130 103 92 85 125 160
283 281 280 278 278 281 276 285 285 298 301 308 315 318 318 317 297 273 260 261 219 217 225 199 222 188 210 191 189 232 218 229 264 56 317 165 196 337 204 168 167 152 137 151 161
282 279 272 273 274 276 284 277 287 292 297 304 312 317 319 301 258 96 48 21 257 200 210 247 203 219 207 214 195 245 219 239 261 107 289 232 56 198 247 68 46 149 146 159 164
282 270 262 266 270 274 274 278 276 283 286 294 307 318 317 254 248 275 38 354 308 212 212 212 258 226 232 198 200 212 230 215 255 148 243 327 248 287 287 120 76 122 145 162 163
277 272 252 257 264 271 271 271 265 274 284 291 303 315 279 266 269 276 253 353 293 219 225 225 222 268 272 232 196 197 217 265 232 213 221 264 272 102 202 111 116 127 154 167 164
271 264 250 250 258 268 267 259 261 278 280 287 299 295 273 261 293 304 293 279 280 280 231 219 225 231 338 268 243 197 193 232 232 189 233 219 247 201 144 144 129 142 157 179 165
256 251 248 242 251 273 256 249 262 279 279 284 289 284 264 268 282 281 273 272 260 256 231 221 159 202 233 289 189 162 183 215 208 187 208 226 243 187 162 139 147 144 143 181 163
236 227 223 223 251 269 242 242 267 272 276 277 268 229 270 270 264 288 238 260 286 271 229 163 153 79 304 245 186 187 180 198 180 198 213 191 246 140 157 143 155 133 142 177 177
194 190 205 215 256 180 179 251 260 273 258 244 249 281 267 312 332 300 285 264 250 298 204 169 159 188 225 243 198 203 198 193 188 188 206 202 243 139 178 129 189 145 155 178 179
137 148 158 198 153 156 146 256 249 210 224 248 318 281 309 328 303 277 256 218 219 210 269 169 166 202 229 243 229 244 198 206 176 193 191 189 222 180 166 172 203 165 158 179 188
106 115 117 120 126 138 277 294 54 327 300 283 273 278 278 326 293 294 293 219 189 226 205 190 215 205 207 290 232 260 202 205 203 124 357 198 203 235 164 182 185 158 157 171 176
96 98 114 122 138 178 341 40 345 332 267 173 283 296 316 320 294 300 331 243 224 233 231 243 318 141 180 233 4 349 349 161 184 185 284 310 217 201 207 182 157 136 229 164 172
99 111 125 143 225 16 56 345 328 322 287 342 210 123 282 297 266 307 285 293 169 244 217 266 327 185 205 223 162 274 169 359 345 162 200 222 212 207 196 188 160 173 186 181 157
89 83 74 346 305 39 328 317 315 248 301 6 351 348 249 295 310 74 321 265 289 172 204 91 18 316 195 242 168 143 156 190 21 183 118 202 219 207 184 205 177 173 175 173 150
69 50 354 339 80 359 316 311 273 259 257 345 325 348 359 308 333 307 302 275 354 43 65 52 85 298 319 271 180 135 137 93 77 100 186 186 225 258 185 194 176 180 178 174 149
74 56 41 11 13 318 299 270 319 227 279 329 336 327 334 13 323 346 334 219 246 78 276 115 209 218 278 243 148 120 113 108 150 161 136 284 186 263 15 356 173 173 165 140 129
83 87 75 49 338 316 286 14 285 238 3 318 317 336 360 21 347 2 295 279 228 308 274 161 257 178 182 270 165 184 170 113 6 157 107 358 200 255 86 44 2 55 112 116 114
310 143 68 8 338 309 22 281 347 9 331 345 321 335 59 24 350 323 277 317 350 197 293 62 226 109 17 24 337 158 185 312 100 278 106 201 252 281 145 103 72 93 104 108 114
305 270 66 333 324 277 63 312 349 342 358 3 333 42 338 355 345 356 311 26 301 298 283 48 292 13 105 10 15 240 132 86 334 147 185 177 262 227 158 155 147 128 123 114 104
290 47 34 326 281 54 16 355 297 278 297 83 333 305 303 325 333 336 302 325 23 334 288 138 198 33 154 101 316 90 133 122 23 356 163 145 219 330 193 168 155 148 135 123 122
9 33 336 311 46 64 246 184 289 268 244 280 227 246 251 316 306 284 308 327 2 355 304 318 14 54 72 186 308 287 331 160 172 219 109 126 25 349 315 138 141 143 134 133 134
98 293 131 294 43 79 294 272 263 251 277 254 271 227 4 300 285 241 308 346 342 348 344 346 247 339 120 117 54 224 231 287 41 34 133 77 296 350 57 98 129 132 138 134 136
84 333 331 36 225 297 295 193 289 211 279 288 283 303 127 275 232 288 302 307 345 329 330 42 309 53 30 52 339 186 200 301 156 109 159 213 185 170 122 127 128 130 130 134 143
18 290 307 322 54 276 22 322 286 281 233 302 280 227 257 279 276 249 284 294 285 262 266 297 265 284 129 49 19 299 198 191 247 205 112 13 83 162 177 147 136 133 135 145 154
128 179 254 315 293 297 222 259 255 253 219 198 228 292 227 242 315 299 322 282 344 335 202 199 293 152 79 306 43 322 311 192 201 221 95 306 102 19 137 126 143 164 163 168 172
86 102 277 139 245 268 239 237 288 19 269 241 262 312 273 261 201 299 316 299 288 316 321 293 164 280 135 313 15 296 230 202 156 243 119 148 80 114 65 164 169 174 177 172 174